Flag for Ukraine Weather past 2 weeks in Odesa, Ukraine

Now
88 °F

Passing clouds.


Feels Like: 87 °F
Forecast: 72 / 88 °F
Wind: 8 mph from Northeast

Location: Odesa Airport

Current Time: Jul 25, 2014 at 4:50:23 PM

Latest Report: Jul 25, 2014 at 4:00 PM


Visibility: N/A

Pressure: 29.83 "Hg

Humidity: 38%

Dew point: 59 °F

Location of OdesaLocation

Historic Weather in Odesa — Graph

°F

Odesa temperature yesterday

Maximum temperature yesterday: 82 °F (at 3:00 PM)
Minimum temperature yesterday: 64 °F (at 10:00 AM)
Average temperature yesterday: 74 °F

Past Weeks' High & Low Weather Summary

 TemperatureHumidityPressure
High91 °F (Jul 14, 3:00 PM)100% (Jul 12, 5:00 AM)29.92 "Hg (Jul 12, 5:00 AM)
Low63 °F (Jul 13, 5:00 AM)25% (Jul 15, 5:30 PM)29.62 "Hg (Jul 11, 5:30 PM)
Average76 °F64%29.81 "Hg
* Reported Jul 10 3:00 PM — Jul 25 3:30 PM, Odesa, Weather by CustomWeather, © 2014

Note: Actual official high and low records may vary slightly from our data, if they occured in-between our weather recording intervals... More about our weather records

Advertising

Odesa weather history for previous 24 hours

 ConditionsComfort  
Time TempWeatherWind HumidityBarometerVisibility
3:30 PM
Jul 25
88 °FPassing clouds.10 mph38%29.83 "HgN/A
3:00 PM88 °FSunny.13 mph40%29.83 "Hg10 mi
2:30 PM86 °FPassing clouds.13 mph43%29.83 "HgN/A
2:00 PM86 °FPassing clouds.13 mph43%29.83 "HgN/A
1:30 PM84 °FPassing clouds.10 mph45%29.83 "HgN/A
1:00 PM84 °FSunny.13 mph43%29.83 "Hg10 mi
12:30 PM84 °FPassing clouds.10 mph45%29.83 "HgN/A
12:00 PM84 °FPassing clouds.10 mph48%29.83 "HgN/A
11:30 AM81 °FPassing clouds.10 mph54%29.86 "HgN/A
11:00 AM81 °FPassing clouds.8 mph54%29.86 "HgN/A
10:30 AM79 °FSunny.8 mph58%29.86 "Hg10 mi
10:00 AM77 °FPassing clouds.10 mph61%29.86 "HgN/A
9:30 AM77 °FSunny.10 mph61%29.83 "Hg10 mi
9:00 AM75 °FSunny.8 mph65%29.83 "Hg10 mi
8:30 AM73 °FSunny.10 mph69%29.83 "Hg10 mi
8:00 AM72 °FSunny.10 mph78%29.83 "Hg10 mi
7:30 AM70 °FSunny.8 mph83%29.83 "Hg10 mi
7:00 AM68 °FSunny.6 mph88%29.83 "Hg10 mi
6:30 AM66 °FSunny.6 mph88%29.83 "Hg10 mi
6:00 AM66 °FPassing clouds.8 mph88%29.80 "HgN/A
5:30 AM66 °FPassing clouds.6 mph88%29.80 "HgN/A
5:00 AM66 °FClear.6 mph88%29.80 "Hg10 mi
4:30 AM66 °FClear.6 mph88%29.80 "Hg10 mi
4:00 AM66 °FClear.6 mph94%29.80 "Hg10 mi
3:30 AM66 °FClear.3 mph94%29.80 "Hg10 mi
3:00 AM66 °FClear.6 mph94%29.80 "Hg10 mi
2:30 AM66 °FClear.3 mph94%29.80 "Hg10 mi
2:00 AM68 °FClear.3 mph88%29.80 "Hg10 mi
1:30 AM70 °FClear.6 mph83%29.80 "Hg10 mi
1:00 AM70 °FClear.6 mph83%29.80 "Hg10 mi
12:30 AM72 °FClear.8 mph78%29.80 "Hg10 mi
12:00 AM72 °FPassing clouds.8 mph83%29.80 "HgN/A
11:30 PM
Jul 24
72 °FPassing clouds.8 mph83%29.80 "HgN/A
11:00 PM72 °FPassing clouds.13 mph83%29.80 "HgN/A
10:30 PM73 °FPassing clouds.10 mph78%29.80 "HgN/A
10:00 PM75 °FPassing clouds.8 mph74%29.80 "HgN/A
9:30 PM75 °FPartly sunny.8 mph78%29.80 "HgN/A
9:00 PM75 °FPartly sunny.8 mph78%29.77 "HgN/A
8:30 PM77 °FPartly sunny.8 mph74%29.77 "HgN/A
8:00 PM79 °FPartly sunny.10 mph70%29.77 "HgN/A
7:30 PM79 °FPartly sunny.8 mph70%29.77 "HgN/A
7:00 PM81 °FPartly sunny.8 mph66%29.77 "HgN/A
6:30 PM82 °FPartly sunny.6 mph62%29.77 "HgN/A
6:00 PM81 °FPassing clouds.8 mph66%29.77 "HgN/A
5:30 PM82 °FPartly sunny.8 mph62%29.77 "HgN/A
5:00 PM82 °FPartly sunny.10 mph62%29.77 "HgN/A
4:30 PM82 °FPartly sunny.8 mph55%29.77 "HgN/A
4:00 PM82 °FPartly sunny.8 mph58%29.77 "HgN/A
Weather by CustomWeather, © 2014

See weather overviewHow to use our weather pages